Location: Canet
(43.3261°N, 5.3723°E)
Time: 19:19:55
(UTC+00:00)

CZ-4B R/B - Pass Details

Date: 24 January 2021
Orbit: 808 x 882 km, 99.1° (Epoch: 08 March)

Event Time Altitude Azimuth Distance (km) Brightness Sun altitude
Rises 17:22:01 0° 172° (S) 3,409 6.5 -7.9°
Reaches altitude 10° 17:24:22 10° 175° (S) 2,487 5.8 -8.3°
Maximum altitude 17:29:53 67° 258° (WSW) 941 3.7 -9.3°
Drops below altitude 10° 17:35:31 10° 341° (NNW) 2,541 5.7 -10.3°
Sets 17:37:58 0° 344° (NNW) 3,489 6.4 -10.7°
